Location: Unspecified
(0.0000°N, 0.0000°E)
Time: 19:16:42
(UTC+01:00)

Iridium 12 - Visible Passes

Search period start: 22 January 2017 00:00
Search period end: 01 February 2017 00:00
Orbit: 776 x 779 km, 86.4° (Epoch: 21 January)

Date Brightness Start Highest point End Pass type
(mag) Time Alt. Az. Time Alt. Az. Time Alt. Az.
22 Jan 7.9 21:00:01 10° SW 21:03:55 22° W 21:07:50 10° NW visible
23 Jan 6.5 20:25:29 10° SSW 20:30:29 47° W 20:35:28 10° NNW visible
24 Jan 5.5 19:51:49 10° S 19:57:01 76° E 20:02:13 10° N visible
25 Jan 8.9 06:48:16 10° ENE 06:50:02 12° E 06:51:47 10° ESE visible
25 Jan 8.5 21:01:38 10° WSW 21:03:59 13° W 21:06:20 10° WNW visible
26 Jan 7.5 20:26:04 10° SSW 20:30:32 29° W 20:35:00 10° NNW visible
27 Jan 6.0 19:51:55 10° S 19:57:05 66° W 20:02:14 10° N visible
28 Jan 8.4 06:46:24 10° NE 06:50:04 19° E 06:53:45 10° SE visible
29 Jan 8.4 20:27:05 10° SW 20:30:35 18° W 20:34:05 10° NW visible
30 Jan 7.0 19:52:17 10° SSW 19:57:08 40° W 20:01:59 10° NNW visible
31 Jan 7.7 06:45:34 10° NNE 06:50:08 31° E 06:54:43 10° SSE visible
